Location: Bonn
(50.7374°N, 7.0982°E)
Time: 17:59:29
(UTC+02:00)

ISS - Visible Passes

Search period start: 29 September 2020 00:00
Search period end: 09 October 2020 00:00
Orbit: 419 x 421 km, 51.6° (Epoch: 30 September)

Date Brightness Start Highest point End Pass type
(mag) Time Alt. Az. Time Alt. Az. Time Alt. Az.
29 Sep -3.8 21:02:52 10° WNW 21:06:14 75° SSW 21:06:38 63° SE visible
30 Sep -3.8 20:15:36 10° WNW 20:18:59 90° SSW 20:21:11 20° ESE visible
30 Sep -1.4 21:52:35 10° W 21:54:09 21° WSW 21:54:09 21° WSW visible
01 Oct -3.0 21:05:13 10° W 21:08:27 42° SSW 21:08:44 40° SSW visible
02 Oct -3.3 20:17:54 10° WNW 20:21:15 57° SSW 20:23:21 20° SE visible
02 Oct -0.8 21:55:34 10° WSW 21:56:20 13° WSW 21:56:20 13° WSW visible
03 Oct -1.8 21:07:49 10° W 21:10:26 21° SW 21:11:00 20° SSW visible
04 Oct -2.2 20:20:18 10° W 20:23:18 30° SSW 20:25:45 13° SSE visible
05 Oct -2.6 19:32:53 10° W 19:36:06 41° SSW 19:39:18 10° SE visible
06 Oct -1.0 20:23:13 10° WSW 20:25:09 14° SW 20:27:04 10° S visible
07 Oct -1.3 19:35:25 10° W 19:38:01 21° SW 19:40:36 10° SSE visible
